QPF
0.36 0.41 0.37 0.34 0.30 0.24 0.20 0.16 0.12 0.07 0.05 0.05 0.07 0.08 0.09 0.11 0.14 0.16 0.13 0.08 0.06 0.05 0.04 0.02 0.02 0.01 0.02 0.02 0.02 0.02 0.02 0.02 0.01 0.01 0.01 0.02 0.03 0.03
0.28 0.33 0.35 0.37 0.41 0.37 0.29 0.23 0.17 0.11 0.07 0.05 0.04 0.06 0.07 0.07 0.09 0.11 0.11 0.07 0.05 0.04 0.03 0.03 0.02 0.01 0.01 0.01 0.01 0.01 0.01 0.01 0.01 0.01 0.01 0.01 0.01 0.01
0.28 0.28 0.31 0.32 0.35 0.38 0.34 0.27 0.20 0.14 0.10 0.07 0.05 0.05 0.06 0.06 0.06 0.07 0.07 0.05 0.05 0.05 0.05 0.04 0.04 0.03 0.02 0.01 0.02 0.01 0.00 0.00 0.01 0.01 0.01 0.01 0.01 0.01
0.20 0.22 0.26 0.26 0.24 0.25 0.24 0.23 0.20 0.15 0.11 0.09 0.08 0.06 0.05 0.05 0.06 0.07 0.08 0.06 0.06 0.09 0.10 0.09 0.07 0.05 0.03 0.03 0.02 0.01 0.01 0.01 0.01 0.01 0.01 0.01 0.01 0.02
0.15 0.15 0.16 0.21 0.20 0.17 0.15 0.15 0.15 0.14 0.11 0.10 0.10 0.09 0.06 0.04 0.03 0.05 0.09 0.09 0.09 0.11 0.12 0.10 0.08 0.06 0.05 0.04 0.02 0.01 0.00 0.01 0.01 0.01 0.01 0.01 0.01 0.01
0.10 0.10 0.10 0.11 0.13 0.12 0.11 0.09 0.09 0.09 0.09 0.07 0.07 0.06 0.05 0.05 0.04 0.04 0.06 0.09 0.11 0.11 0.11 0.09 0.08 0.06 0.05 0.03 0.01 0.01 0.01 0.01 0.01 0.00 0.00 0.01 0.01 0.01
0.06 0.06 0.06 0.07 0.07 0.08 0.09 0.08 0.07 0.06 0.06 0.06 0.05 0.04 0.04 0.04 0.04 0.05 0.07 0.09 0.12 0.12 0.10 0.08 0.06 0.04 0.03 0.03 0.02 0.02 0.01 0.01 0.00 0.00 0.00 0.00 0.01 0.01
0.04 0.04 0.04 0.05 0.05 0.05 0.04 0.05 0.06 0.05 0.04 0.04 0.05 0.03 0.02 0.03 0.03 0.05 0.06 0.07 0.12 0.12 0.09 0.09 0.07 0.05 0.03 0.02 0.02 0.01 0.01 0.00 0.00 0.00 0.00 0.00 0.00 0.00
0.01 0.02 0.04 0.04 0.04 0.03 0.04 0.04 0.04 0.04 0.03 0.03 0.03 0.03 0.03 0.03 0.04 0.06 0.08 0.08 0.07 0.08 0.06 0.08 0.08 0.05 0.03 0.02 0.02 0.01 0.00 0.00 0.00 0.00 0.00 0.00 0.00 0.00
0.02 0.02 0.04 0.04 0.04 0.03 0.03 0.02 0.02 0.02 0.03 0.03 0.03 0.03 0.03 0.05 0.07 0.09 0.10 0.09 0.08 0.07 0.06 0.07 0.08 0.05 0.02 0.01 0.01 0.00 0.00 0.00 0.00 0.00 0.00 0.00 0.00 0.00
0.03 0.02 0.04 0.04 0.04 0.05 0.04 0.03 0.02 0.02 0.03 0.03 0.04 0.04 0.06 0.07 0.09 0.09 0.08 0.06 0.06 0.06 0.04 0.03 0.04 0.04 0.02 0.01 0.00 0.00 0.00 0.00 0.00 0.00 0.00 0.00 0.00 0.00
0.03 0.02 0.06 0.07 0.05 0.05 0.05 0.04 0.03 0.03 0.02 0.03 0.04 0.07 0.08 0.08 0.10 0.10 0.09 0.05 0.03 0.03 0.02 0.01 0.02 0.02 0.02 0.01 0.00 0.00 0.00 0.00 0.00 0.00 0.00 0.00 0.00 0.00
0.03 0.03 0.06 0.10 0.08 0.06 0.06 0.06 0.05 0.05 0.05 0.07 0.10 0.10 0.10 0.09 0.09 0.10 0.11 0.09 0.04 0.02 0.01 0.00 0.01 0.00 0.01 0.01 0.00 0.00 0.00 0.00 0.00 0.00 0.00 0.00 0.00 0.00
0.02 0.04 0.07 0.12 0.11 0.08 0.08 0.09 0.09 0.09 0.08 0.09 0.10 0.10 0.11 0.11 0.11 0.10 0.10 0.10 0.07 0.05 0.02 0.01 0.01 0.00 0.00 0.00 0.00 0.00 0.00 0.00 0.00 0.00 0.00 0.00 0.00 0.00
0.02 0.05 0.08 0.12 0.10 0.07 0.08 0.08 0.07 0.07 0.08 0.06 0.06 0.07 0.08 0.09 0.08 0.09 0.09 0.10 0.09 0.06 0.05 0.02 0.01 0.00 0.00 0.00 0.00 0.00 0.00 0.00 0.00 0.00 0.00 0.00 0.00 0.00
0.03 0.04 0.07 0.09 0.08 0.06 0.06 0.07 0.06 0.06 0.08 0.05 0.04 0.03 0.03 0.04 0.05 0.05 0.06 0.07 0.09 0.06 0.04 0.03 0.01 0.00 0.00 0.00 0.00 0.00 0.00 0.00 0.00 0.00 0.00 0.00 0.00 0.00
0.01 0.02 0.04 0.06 0.06 0.05 0.06 0.08 0.06 0.05 0.05 0.03 0.02 0.02 0.02 0.02 0.02 0.03 0.03 0.05 0.05 0.04 0.03 0.01 0.01 0.00 0.00 0.00 0.00 0.00 0.00 0.00 0.00 0.00 0.00 0.00 0.00 0.00
0.03 0.02 0.03 0.05 0.05 0.05 0.04 0.04 0.04 0.04 0.04 0.02 0.01 0.01 0.00 0.00 0.01 0.01 0.02 0.04 0.03 0.02 0.01 0.00 0.00 0.00 0.00 0.00 0.00 0.00 0.00 0.00 0.00 0.00 0.00 0.00 0.00 0.00
0.01 0.02 0.02 0.03 0.03 0.02 0.02 0.02 0.02 0.02 0.02 0.01 0.00 0.00 0.00 0.00 0.00 0.01 0.01 0.02 0.01 0.01 0.00 0.00 0.00 0.00 0.00 0.00 0.00 0.00 0.00 0.00 0.00 0.00 0.00 0.00 0.00 0.00
0.00 0.01 0.01 0.01 0.01 0.01 0.01 0.01 0.01 0.00 0.00 0.00 0.00 0.00 0.00 0.00 0.00 0.00 0.00 0.00 0.00 0.00 0.00 0.00 0.00 0.00 0.00 0.00 0.00 0.00 0.00 0.00 0.00 0.00 0.00 0.00 0.00 0.00
0.00 0.00 0.00 0.00 0.00 0.01 0.01 0.00 0.00 0.00 0.00 0.00 0.00 0.00 0.00 0.00 0.00 0.00 0.00 0.00 0.00 0.00 0.00 0.00 0.00 0.00 0.00 0.00 0.00 0.00 0.00 0.00 0.00 0.00 0.00 0.00 0.00 0.00
0.00 0.00 0.00 0.00 0.00 0.00 0.00 0.00 0.00 0.00 0.00 0.00 0.00 0.00 0.00 0.00 0.00 0.00 0.00 0.00 0.00 0.00 0.00 0.00 0.00 0.00 0.00 0.00 0.00 0.00 0.00 0.00 0.00 0.00 0.00 0.00 0.00 0.00
0.00 0.00 0.00 0.00 0.00 0.00 0.00 0.00 0.00 0.00 0.00 0.00 0.00 0.00 0.00 0.00 0.00 0.00 0.00 0.00 0.00 0.00 0.00 0.00 0.00 0.00 0.00 0.00 0.00 0.00 0.00 0.00 0.00 0.00 0.00 0.00 0.00 0.00
MSLP
1009.53 1009.90 1010.33 1010.82 1011.35 1011.91 1012.47 1013.02 1013.52 1013.97 1014.35 1014.65 1014.87 1015.03 1015.15 1015.27 1015.40 1015.58 1015.81 1016.11 1016.47 1016.88 1017.29 1017.70 1018.08 1018.41 1018.70 1018.94 1019.14 1019.33 1019.50 1019.68 1019.86 1020.03 1020.18 1020.31 1020.39 1020.44
1009.09 1009.35 1009.69 1010.11 1010.60 1011.14 1011.72 1012.31 1012.89 1013.43 1013.91 1014.33 1014.66 1014.91 1015.11 1015.28 1015.44 1015.61 1015.83 1016.10 1016.43 1016.79 1017.17 1017.55 1017.92 1018.26 1018.55 1018.82 1019.05 1019.27 1019.48 1019.68 1019.87 1020.04 1020.19 1020.31 1020.38 1020.41
1008.84 1008.99 1009.23 1009.57 1010.00 1010.51 1011.09 1011.72 1012.36 1012.98 1013.56 1014.08 1014.52 1014.87 1015.15 1015.37 1015.57 1015.75 1015.96 1016.20 1016.48 1016.79 1017.13 1017.48 1017.83 1018.16 1018.46 1018.75 1019.01 1019.26 1019.49 1019.72 1019.92 1020.11 1020.26 1020.37 1020.44 1020.47
1008.79 1008.83 1008.98 1009.24 1009.62 1010.09 1010.66 1011.30 1011.97 1012.65 1013.30 1013.90 1014.42 1014.85 1015.21 1015.49 1015.73 1015.94 1016.15 1016.38 1016.63 1016.91 1017.22 1017.54 1017.86 1018.18 1018.49 1018.78 1019.06 1019.33 1019.59 1019.83 1020.06 1020.25 1020.41 1020.53 1020.60 1020.64
1008.91 1008.88 1008.95 1009.15 1009.47 1009.91 1010.44 1011.06 1011.73 1012.42 1013.10 1013.74 1014.31 1014.81 1015.22 1015.56 1015.85 1016.10 1016.34 1016.59 1016.84 1017.12 1017.41 1017.72 1018.04 1018.35 1018.66 1018.95 1019.25 1019.53 1019.80 1020.05 1020.29 1020.49 1020.65 1020.77 1020.86 1020.92
1009.18 1009.10 1009.13 1009.28 1009.55 1009.93 1010.42 1010.99 1011.61 1012.27 1012.93 1013.55 1014.14 1014.65 1015.11 1015.50 1015.85 1016.16 1016.46 1016.76 1017.06 1017.37 1017.70 1018.02 1018.35 1018.67 1018.98 1019.28 1019.57 1019.85 1020.12 1020.38 1020.61 1020.81 1020.97 1021.10 1021.20 1021.27
1009.56 1009.47 1009.48 1009.59 1009.81 1010.14 1010.55 1011.04 1011.58 1012.15 1012.73 1013.30 1013.84 1014.35 1014.82 1015.25 1015.66 1016.06 1016.44 1016.83 1017.22 1017.61 1018.00 1018.38 1018.75 1019.10 1019.42 1019.73 1020.02 1020.29 1020.54 1020.78 1021.00 1021.19 1021.34 1021.47 1021.58 1021.66
1010.01 1009.93 1009.93 1010.03 1010.22 1010.48 1010.81 1011.19 1011.61 1012.05 1012.51 1012.98 1013.44 1013.90 1014.35 1014.82 1015.28 1015.76 1016.26 1016.77 1017.28 1017.78 1018.28 1018.74 1019.18 1019.57 1019.93 1020.24 1020.53 1020.79 1021.02 1021.24 1021.43 1021.60 1021.74 1021.86 1021.96 1022.05
1010.49 1010.44 1010.46 1010.55 1010.70 1010.90 1011.14 1011.40 1011.68 1011.98 1012.29 1012.62 1012.97 1013.35 1013.78 1014.24 1014.76 1015.32 1015.92 1016.56 1017.21 1017.85 1018.47 1019.04 1019.56 1020.02 1020.42 1020.76 1021.04 1021.29 1021.50 1021.69 1021.85 1022.00 1022.12 1022.23 1022.32 1022.40
1010.97 1010.95 1011.00 1011.09 1011.22 1011.37 1011.52 1011.67 1011.82 1011.96 1012.12 1012.30 1012.53 1012.82 1013.18 1013.63 1014.17 1014.80 1015.50 1016.25 1017.02 1017.79 1018.54 1019.22 1019.84 1020.37 1020.82 1021.18 1021.48 1021.73 1021.93 1022.10 1022.24 1022.37 1022.47 1022.56 1022.64 1022.71
1011.41 1011.43 1011.50 1011.61 1011.73 1011.85 1011.94 1012.00 1012.03 1012.05 1012.07 1012.12 1012.22 1012.41 1012.71 1013.12 1013.66 1014.32 1015.08 1015.90 1016.78 1017.65 1018.49 1019.27 1019.97 1020.57 1021.07 1021.48 1021.80 1022.06 1022.26 1022.43 1022.57 1022.68 1022.78 1022.86 1022.93 1022.98
1011.80 1011.85 1011.95 1012.08 1012.21 1012.31 1012.36 1012.37 1012.33 1012.26 1012.17 1012.12 1012.13 1012.23 1012.46 1012.82 1013.34 1013.98 1014.76 1015.62 1016.53 1017.46 1018.36 1019.20 1019.95 1020.61 1021.15 1021.60 1021.96 1022.24 1022.47 1022.65 1022.80 1022.93 1023.03 1023.12 1023.18 1023.23
1012.14 1012.21 1012.33 1012.48 1012.62 1012.73 1012.78 1012.78 1012.71 1012.59 1012.46 1012.35 1012.30 1012.34 1012.50 1012.81 1013.27 1013.88 1014.62 1015.46 1016.37 1017.29 1018.20 1019.05 1019.83 1020.51 1021.09 1021.57 1021.96 1022.28 1022.54 1022.76 1022.94 1023.09 1023.22 1023.32 1023.40 1023.44
1012.43 1012.50 1012.64 1012.80 1012.97 1013.10 1013.18 1013.19 1013.14 1013.04 1012.91 1012.79 1012.71 1012.72 1012.84 1013.09 1013.50 1014.04 1014.71 1015.49 1016.33 1017.20 1018.07 1018.89 1019.65 1020.32 1020.91 1021.41 1021.83 1022.18 1022.49 1022.75 1022.97 1023.17 1023.34 1023.46 1023.56 1023.61
1012.70 1012.75 1012.88 1013.06 1013.24 1013.40 1013.52 1013.58 1013.58 1013.53 1013.45 1013.36 1013.31 1013.32 1013.43 1013.65 1013.99 1014.46 1015.04 1015.72 1016.46 1017.24 1018.02 1018.77 1019.47 1020.10 1020.67 1021.17 1021.61 1022.00 1022.34 1022.64 1022.91 1023.15 1023.36 1023.52 1023.64 1023.71
1012.95 1012.99 1013.10 1013.27 1013.46 1013.65 1013.80 1013.92 1013.99 1014.01 1014.01 1014.00 1014.00 1014.05 1014.17 1014.38 1014.68 1015.08 1015.57 1016.14 1016.77 1017.42 1018.09 1018.74 1019.36 1019.93 1020.46 1020.93 1021.37 1021.76 1022.13 1022.46 1022.76 1023.03 1023.27 1023.46 1023.60 1023.69
1013.22 1013.23 1013.31 1013.46 1013.64 1013.83 1014.02 1014.18 1014.32 1014.43 1014.52 1014.60 1014.68 1014.80 1014.96 1015.17 1015.46 1015.81 1016.22 1016.69 1017.21 1017.74 1018.29 1018.83 1019.35 1019.84 1020.31 1020.74 1021.15 1021.53 1021.89 1022.23 1022.54 1022.83 1023.08 1023.28 1023.43 1023.53
1013.51 1013.49 1013.54 1013.65 1013.80 1013.98 1014.18 1014.37 1014.56 1014.74 1014.92 1015.09 1015.27 1015.46 1015.68 1015.93 1016.22 1016.54 1016.91 1017.30 1017.72 1018.16 1018.60 1019.04 1019.46 1019.87 1020.27 1020.64 1021.00 1021.35 1021.68 1021.99 1022.28 1022.55 1022.79 1022.98 1023.12 1023.21
1013.83 1013.78 1013.80 1013.86 1013.97 1014.12 1014.30 1014.50 1014.72 1014.95 1015.19 1015.44 1015.70 1015.97 1016.26 1016.55 1016.87 1017.19 1017.53 1017.89 1018.24 1018.60 1018.96 1019.32 1019.66 1020.00 1020.32 1020.63 1020.93 1021.22 1021.50 1021.77 1022.01 1022.24 1022.43 1022.59 1022.71 1022.78
1014.14 1014.09 1014.07 1014.09 1014.16 1014.26 1014.41 1014.59 1014.81 1015.06 1015.34 1015.65 1015.97 1016.31 1016.65 1017.00 1017.34 1017.69 1018.03 1018.36 1018.68 1019.00 1019.31 1019.61 1019.89 1020.17 1020.43 1020.69 1020.93 1021.16 1021.37 1021.58 1021.76 1021.92 1022.06 1022.16 1022.23 1022.27
1014.41 1014.36 1014.33 1014.32 1014.35 1014.41 1014.51 1014.66 1014.87 1015.12 1015.41 1015.74 1016.09 1016.47 1016.85 1017.23 1017.61 1017.98 1018.33 1018.66 1018.98 1019.28 1019.56 1019.83 1020.09 1020.33 1020.56 1020.77 1020.96 1021.13 1021.29 1021.42 1021.54 1021.63 1021.70 1021.75 1021.77 1021.76
1014.60 1014.57 1014.54 1014.52 1014.52 1014.54 1014.61 1014.73 1014.90 1015.13 1015.41 1015.74 1016.10 1016.49 1016.89 1017.28 1017.68 1018.05 1018.41 1018.75 1019.08 1019.38 1019.66 1019.93 1020.18 1020.41 1020.62 1020.81 1020.97 1021.11 1021.22 1021.30 1021.36 1021.39 1021.40 1021.39 1021.36 1021.31
1014.65 1014.66 1014.66 1014.65 1014.64 1014.65 1014.70 1014.79 1014.93 1015.13 1015.38 1015.69 1016.03 1016.40 1016.79 1017.18 1017.56 1017.94 1018.30 1018.64 1018.97 1019.28 1019.57 1019.85 1020.11 1020.36 1020.57 1020.76 1020.92 1021.05 1021.13 1021.18 1021.20 1021.19 1021.16 1021.10 1021.03 1020.94
Thickness
5700 5702 5703 5706 5707 5708 5709 5708 5703 5699 5701 5707 5712 5717 5720 5721 5721 5720 5718 5716 5714 5712 5710 5707 5705 5703 5701 5699 5697 5695 5693 5690 5688 5685 5683 5681 5678 5677
5693 5695 5697 5700 5701 5703 5704 5704 5704 5701 5699 5703 5706 5711 5714 5716 5716 5715 5713 5711 5709 5707 5705 5703 5700 5698 5696 5693 5691 5688 5686 5684 5681 5679 5676 5674 5672 5670
5684 5687 5690 5693 5694 5696 5697 5698 5698 5698 5695 5697 5701 5704 5705 5708 5708 5708 5707 5706 5704 5702 5700 5697 5694 5692 5689 5687 5684 5681 5679 5677 5674 5672 5670 5668 5666 5664
5676 5680 5683 5686 5688 5689 5691 5692 5693 5694 5693 5691 5693 5695 5697 5700 5701 5701 5701 5699 5698 5696 5694 5691 5688 5685 5682 5679 5677 5674 5672 5669 5667 5665 5664 5662 5660 5658
5668 5672 5675 5677 5679 5682 5684 5685 5687 5689 5689 5688 5687 5689 5690 5691 5692 5692 5692 5691 5690 5688 5686 5683 5680 5677 5674 5671 5669 5667 5664 5662 5660 5659 5657 5655 5653 5651
5661 5664 5666 5669 5671 5673 5675 5677 5679 5681 5682 5681 5681 5681 5682 5683 5684 5683 5681 5681 5681 5679 5676 5674 5671 5668 5665 5663 5661 5659 5657 5655 5653 5651 5649 5648 5646 5644
5652 5655 5658 5661 5665 5666 5668 5669 5671 5672 5674 5674 5674 5674 5675 5675 5676 5676 5674 5672 5671 5670 5667 5664 5662 5659 5656 5654 5652 5651 5649 5647 5645 5644 5642 5640 5638 5636
5642 5646 5650 5653 5656 5659 5662 5664 5665 5666 5666 5666 5667 5668 5669 5671 5671 5670 5668 5666 5661 5659 5658 5653 5652 5650 5647 5646 5645 5643 5641 5640 5638 5636 5634 5632 5631 5629
5633 5637 5641 5644 5647 5650 5653 5656 5658 5660 5662 5663 5662 5663 5665 5667 5666 5663 5662 5660 5657 5653 5651 5644 5642 5640 5639 5637 5636 5635 5634 5632 5631 5629 5627 5625 5624 5623
5625 5628 5631 5634 5638 5642 5644 5646 5648 5651 5655 5658 5660 5661 5663 5663 5663 5660 5657 5652 5648 5645 5644 5637 5633 5631 5629 5628 5628 5627 5626 5625 5624 5623 5621 5620 5618 5617
5617 5620 5623 5627 5632 5635 5637 5638 5641 5643 5648 5651 5654 5656 5657 5658 5657 5654 5649 5646 5641 5637 5636 5633 5626 5623 5621 5620 5620 5620 5619 5619 5618 5617 5616 5615 5614 5613
5609 5612 5616 5621 5625 5629 5631 5633 5635 5637 5641 5644 5646 5648 5650 5650 5650 5650 5648 5643 5638 5633 5631 5628 5623 5620 5615 5613 5613 5613 5613 5613 5613 5612 5612 5611 5610 5609
5601 5604 5609 5615 5619 5623 5626 5628 5630 5632 5635 5637 5638 5640 5641 5642 5642 5642 5642 5641 5637 5633 5631 5629 5622 5619 5617 5611 5608 5608 5609 5608 5608 5607 5608 5608 5607 5606
5595 5599 5604 5610 5614 5618 5621 5623 5626 5627 5629 5630 5631 5632 5634 5634 5635 5636 5635 5635 5635 5635 5632 5631 5625 5620 5616 5611 5608 5606 5605 5605 5605 5604 5604 5604 5604 5603
5595 5599 5603 5607 5611 5614 5616 5619 5621 5623 5624 5624 5625 5625 5627 5629 5630 5630 5629 5629 5629 5628 5627 5628 5627 5621 5618 5613 5609 5606 5604 5603 5603 5602 5602 5601 5601 5601
5596 5599 5602 5605 5608 5611 5613 5615 5617 5619 5620 5621 5621 5621 5623 5624 5624 5625 5624 5624 5623 5620 5621 5623 5623 5621 5616 5613 5611 5607 5606 5604 5603 5602 5601 5600 5600 5599
5599 5601 5602 5604 5606 5608 5611 5613 5615 5617 5617 5618 5618 5619 5619 5619 5619 5620 5621 5620 5618 5615 5613 5614 5616 5616 5615 5613 5608 5606 5604 5603 5603 5602 5600 5598 5599 5599
5603 5602 5602 5604 5606 5608 5610 5611 5613 5615 5616 5616 5616 5617 5616 5616 5616 5616 5617 5616 5613 5611 5610 5610 5611 5611 5609 5607 5608 5605 5604 5602 5602 5601 5599 5597 5597 5598
5606 5605 5605 5606 5608 5610 5611 5612 5613 5614 5615 5615 5615 5615 5615 5614 5614 5613 5612 5611 5610 5608 5608 5609 5609 5608 5606 5605 5604 5605 5604 5602 5601 5599 5598 5597 5596 5598
5610 5610 5610 5610 5611 5612 5613 5614 5614 5615 5615 5615 5615 5615 5614 5614 5613 5612 5611 5610 5608 5607 5606 5607 5608 5608 5607 5606 5604 5603 5604 5603 5600 5598 5597 5596 5595 5596
5615 5615 5615 5615 5616 5616 5617 5617 5617 5616 5616 5616 5615 5615 5615 5614 5612 5612 5610 5610 5609 5607 5606 5606 5607 5608 5608 5605 5603 5602 5602 5603 5602 5599 5597 5594 5592 5592
5620 5620 5619 5620 5620 5620 5620 5619 5619 5618 5618 5617 5617 5616 5616 5615 5614 5613 5611 5610 5609 5608 5608 5606 5606 5606 5605 5604 5602 5601 5600 5600 5600 5599 5597 5596 5593 5590
5625 5625 5624 5624 5623 5623 5623 5623 5622 5621 5620 5620 5619 5618 5617 5616 5616 5614 5613 5612 5611 5609 5607 5605 5604 5604 5603 5602 5601 5599 5599 5598 5596 5595 5596 5597 5595 5595